GW6950 Weather Reports


time (UTC)temp
F
wind
direction
speed
knots
gust
knots
rain 1hr
in
rain 24hr
in
rain mn
in
humidity
%
barometer
mb
20260507052129 55 242 1.7 7.0 0.00 0.00 0.00 79 1020.8
20260507051129 55 223 0.9 7.0 0.00 0.00 0.00 79 1020.9
20260507050131 55 251 1.7 6.1 0.00 0.00 0.00 80 1020.9
20260507045130 55 245 1.7 5.2 0.00 0.00 0.00 80 1020.9
20260507044129 55 249 2.6 5.2 0.00 0.00 0.00 80 1020.8
20260507043129 55 245 0.9 5.2 0.00 0.00 0.00 80 1020.8
20260507042612 55 224 0.9 7.0 0.00 0.00 0.00 80 1020.8
20260507041130 55 287 3.5 6.1 0.00 0.00 0.00 79 1020.7
20260507040129 55 249 0.9 3.5 0.00 0.00 0.00 80 1020.7
20260507035129 55 249 3.5 3.5 0.00 0.00 0.00 80 1020.5
20260507034129 55 253 0.0 3.5 0.00 0.00 0.00 80 1020.4
20260507033130 55 266 0.0 3.5 0.00 0.00 0.00 80 1020.4
20260507032130 56 254 0.9 3.5 0.00 0.00 0.00 80 1020.4
20260507031129 56 236 0.9 5.2 0.00 0.00 0.00 80 1020.5
20260507030128 56 238 2.6 7.8 0.00 0.00 0.00 80 1020.1
20260507025126 56 249 1.7 3.5 0.00 0.00 0.00 80 1020.3
20260507024125 56 248 0.9 5.2 0.00 0.00 0.00 79 1020.0
20260507023125 56 231 1.7 3.5 0.00 0.00 0.00 79 1020.0
20260507022123 56 244 0.9 3.5 0.00 0.00 0.00 78 1020.1
20260507021121 56 238 0.0 3.5 0.00 0.00 0.00 79 1020.0
20260507020120 56 235 1.7 6.1 0.00 0.00 0.00 79 1020.3
20260507015119 56 221 2.6 9.6 0.00 0.00 0.00 79 1020.1
20260507014118 56 187 2.6 11.3 0.00 0.00 0.00 79 1020.2
20260507013114 56 242 1.7 7.0 0.00 0.00 0.00 79 1020.3
20260507012114 56 249 3.5 13.9 0.00 0.00 0.00 77 1020.0
20260507011559 57 253 4.3 11.3 0.00 0.00 0.00 78 1020.4
20260507010112 57 275 4.3 12.2 0.00 0.00 0.00 78 1020.2
20260507005111 57 244 4.3 7.8 0.00 0.00 0.00 79 1020.3
20260507004110 57 239 2.6 7.0 0.00 0.00 0.00 78 1020.2
20260507003108 57 225 2.6 8.7 0.00 0.00 0.00 77 1020.1
20260507002102 57 262 2.6 7.0 0.00 0.00 0.00 77 1020.4
20260507001544 57 259 2.6 7.0 0.00 0.00 0.00 77 1020.3
20260507000101 58 258 1.7 6.1 0.00 0.00 0.00 77 1020.3
20260506235058 58 255 1.7 5.2 0.00 0.00 0.00 76 1020.3
20260506234057 57 240 1.7 5.2 0.00 0.00 0.00 76 1020.3
20260506233055 57 252 1.7 2.6 0.00 0.00 0.00 77 1020.3
20260506232053 57 236 0.9 6.1 0.00 0.00 0.00 78 1020.5
20260506231526 56 224 1.7 7.0 0.00 0.00 0.00 78 1020.5
20260506230527 57 233 3.5 7.8 0.00 0.00 0.00 79 1020.6
20260506225047 57 191 2.6 7.0 0.00 0.00 0.00 80 1020.4
20260506224030 57 256 2.6 7.8 0.00 0.00 0.00 79 1020.5
20260506223030 57 236 3.5 6.1 0.00 0.00 0.00 80 1020.6
20260506222029 57 228 1.7 8.7 0.00 0.00 0.00 80 1020.6
20260506221030 56 273 3.5 5.2 0.00 0.00 0.00 80 1020.8
20260506214029 56 254 1.7 8.7 0.00 0.00 0.00 80 1020.9
20260506213509 56 255 5.2 7.8 0.00 0.00 0.00 79 1020.6
20260506212028 57 252 2.6 7.0 0.00 0.00 0.00 79 1020.8
20260506211510 57 241 2.6 6.1 0.00 0.00 0.00 78 1020.8
20260506210025 56 237 2.6 6.1 0.00 0.00 0.00 79 1020.8
20260506205022 56 237 2.6 7.8 0.00 0.00 0.00 77 1020.6
20260506204002 56 208 0.9 7.0 0.00 0.00 0.00 79 1020.8
20260506203001 56 229 4.3 7.0 0.00 0.00 0.00 78 1020.7
20260506202000 56 242 0.0 6.1 0.00 0.00 0.00 79 1020.8
20260506201002 56 256 2.6 6.1 0.00 0.00 0.00 78 1020.5
20260506200003 56 253 1.7 6.1 0.00 0.00 0.00 79 1020.7
20260506195002 56 249 0.9 7.0 0.00 0.00 0.00 78 1020.6
20260506194001 55 234 1.7 6.1 0.00 0.00 0.00 79 1020.3
20260506193003 55 261 2.6 7.8 0.00 0.00 0.00 79 1020.5
20260506192001 55 251 3.5 9.6 0.00 0.00 0.00 80 1020.4
20260506191001 55 240 3.5 9.6 0.00 0.00 0.00 77 1020.5
20260506190449 55 233 1.7 9.6 0.00 0.00 0.00 77 1020.4
20260506184957 55 225 0.9 7.8 0.00 0.00 0.00 79 1020.5
20260506183956 55 253 2.6 9.6 0.00 0.00 0.00 80 1020.4
20260506182954 55 290 4.3 9.6 0.00 0.00 0.00 78 1020.4
20260506181952 55 278 3.5 8.7 0.00 0.00 0.00 77 1020.4
20260506181430 55 234 1.7 8.7 0.00 0.00 0.00 79 1020.6
20260506175950 55 224 1.7 8.7 0.00 0.00 0.00 78 1020.1
20260506174930 55 239 4.3 7.0 0.00 0.00 0.00 79 1020.1
20260506173929 55 204 3.5 6.1 0.00 0.00 0.00 78 1020.1
20260506172929 55 246 1.7 6.1 0.00 0.00 0.00 80 1020.0
20260506171930 55 240 0.0 7.0 0.00 0.00 0.00 79 1020.1
20260506170929 55 247 1.7 6.1 0.00 0.00 0.00 80 1020.2
20260506165930 55 254 0.9 7.8 0.00 0.00 0.00 80 1020.1
20260506164929 55 228 2.6 6.1 0.00 0.00 0.00 79 1020.4
20260506163929 54 254 1.7 3.5 0.00 0.00 0.00 79 1020.1
20260506162931 54 264 1.7 7.0 0.00 0.00 0.00 78 1020.1
20260506161930 54 231 4.3 7.8 0.00 0.00 0.00 78 1020.0
20260506160929 54 258 3.5 7.8 0.00 0.00 0.00 79 1020.1
20260506160406 54 250 1.7 7.8 0.00 0.00 0.00 80 1020.0
20260506154927 54 242 1.7 7.0 0.00 0.00 0.00 83 1019.5
20260506154359 54 246 1.7 6.1 0.00 0.00 0.00 83 1019.8
20260506152926 54 252 3.5 6.1 0.00 0.00 0.00 84 1019.8
20260506151924 53 263 1.7 3.5 0.00 0.00 0.00 85 1019.7
20260506150922 53 268 0.9 6.1 0.00 0.00 0.00 85 1019.6
20260506145922 53 273 0.0 5.2 0.00 0.00 0.00 87 1019.6
20260506145359 53 258 1.7 3.5 0.00 0.00 0.00 87 1019.6
20260506143921 53 253 0.0 3.5 0.00 0.00 0.00 87 1019.5
20260506142917 53 259 0.0 3.5 0.00 0.00 0.00 88 1019.7
20260506141917 53 251 0.0 5.2 0.00 0.00 0.00 88 1019.5
20260506140916 53 252 0.9 2.6 0.00 0.00 0.00 89 1019.4
20260506135902 53 244 0.0 0.9 0.00 0.00 0.00 89 1019.3
20260506134902 53 214 0.0 1.7 0.00 0.00 0.00 90 1019.2
20260506133901 53 214 0.0 1.7 0.00 0.00 0.00 90 1019.1
20260506132902 53 214 0.0 1.7 0.00 0.00 0.00 90 1019.1
20260506131902 53 202 0.0 1.7 0.00 0.00 0.00 90 1018.9
20260506130901 53 246 0.0 1.7 0.00 0.00 0.00 90 1019.2
20260506125901 53 248 0.0 1.7 0.00 0.00 0.00 89 1019.0
20260506124901 53 241 0.0 2.6 0.00 0.00 0.00 87 1018.8
20260506123859 53 253 0.0 6.1 0.00 0.00 0.00 87 1018.7
20260506122854 53 253 0.0 1.7 0.00 0.00 0.00 87 1018.7
20260506121854 53 254 0.0 7.8 0.00 0.00 0.00 88 1018.7
20260506120853 53 240 2.6 7.8 0.00 0.00 0.00 87 1018.8
20260506115850 53 256 3.5 7.0 0.00 0.00 0.00 89 1018.7
20260506114847 54 245 0.9 5.2 0.00 0.00 0.00 88 1018.5
20260506113846 53 258 1.7 6.1 0.00 0.00 0.00 87 1018.6
20260506112844 53 246 0.0 5.2 0.00 0.00 0.00 88 1018.5
20260506111843 54 255 0.9 7.0 0.00 0.00 0.00 88 1018.2
20260506110842 54 258 1.7 5.2 0.00 0.00 0.00 87 1018.1
20260506105841 54 256 2.6 7.8 0.00 0.00 0.00 87 1018.2
20260506104842 54 265 5.2 7.8 0.00 0.00 0.00 87 1018.2
20260506103839 54 262 3.5 7.0 0.00 0.00 0.00 87 1018.0
20260506102838 54 263 3.5 6.1 0.00 0.00 0.00 88 1018.2
20260506101837 54 238 3.5 7.8 0.00 0.00 0.00 87 1018.2
20260506101311 54 252 3.5 7.0 0.00 0.00 0.00 86 1018.1
20260506095829 54 274 4.3 7.8 0.00 0.00 0.00 86 1018.0
20260506094828 54 251 4.3 7.8 0.00 0.00 0.00 86 1017.7
20260506094318 54 264 3.5 7.0 0.00 0.00 0.00 87 1017.9
20260506092802 54 260 0.0 6.1 0.00 0.00 0.00 87 1017.7
20260506091802 54 282 1.7 7.0 0.00 0.00 0.00 86 1017.7
20260506090801 54 256 1.7 3.5 0.00 0.00 0.00 86 1017.6
20260506090243 54 243 2.6 6.1 0.00 0.00 0.00 86 1017.6
20260506084802 54 253 2.6 6.1 0.00 0.00 0.00 86 1017.6
20260506083802 54 232 2.6 7.0 0.00 0.00 0.00 87 1017.6
20260506081803 55 246 2.6 8.7 0.00 0.00 0.00 85 1017.4
20260506080801 55 230 0.9 6.1 0.00 0.00 0.00 85 1017.2
20260506072801 55 271 2.6 9.6 0.00 0.00 0.00 85 1016.9
20260506071801 55 249 5.2 9.6 0.00 0.00 0.00 86 1016.9
20260506070803 55 264 4.3 8.7 0.00 0.00 0.00 85 1016.7
20260506061801 55 250 1.7 8.7 0.00 0.00 0.00 82 1016.5
20260506060801 56 246 2.6 7.8 0.00 0.00 0.00 82 1016.5